www.pogodaiklimat.ru

Погода и климат >> Архив погоды >> Пакистан >> Nawabshah


ПОГОДА в Nawabshah

  • Прогноз погоды в Nawabshah
  • Монитор погоды в Nawabshah
  • Климат города

АРХИВ ПОГОДЫ в Nawabshah

Время (UTC), дата Ветер
(напр.,м/с)
 
Видим.   Явления Облачность Т
(С)
Тd
(С)
f
(%)
Тe
(С)
Тes
(С)
Комфортность P
(гПа)
Po
(гПа)
Тmin
(С)
Tmax
(С)
R
(мм)
R24
(мм)
S
(см)
00 20.05 Ю 1 4000 м мгла ясно +28.0 +14.9 45 +31 +31 душно 1002.6 999.3
03 20.05 СЗ 2 4000 м пыль ясно +32.0 +14.1 34 +34 +39 душно 1004.1 1000.8 +27.5
06 20.05 С 3 2000 м пыльный позёмок ясно +39.0 +12.1 20 +38 +54 опасность
солнечного
удара
1006.3 1003.1
09 20.05 СЗ 4 2000 м пыльный позёмок ясно +42.0 +9.3 14 +40 +54 опасность
солнечного
удара
1004.1 1000.0
12 20.05 СЗ 2 2000 м пыль 3/0
[Ac trans]
+41.5 +8.2 14 +39 +43 очень
жарко
1002.3 999.3 +43.1
15 20.05 СЗ 2 4000 м мгла 6/4 300 м
[Sc Ac trans]
+37.0 +12.5 23 +37 +37 очень
жарко
1002.9 1000.0
18 20.05 СЗ 1 4000 м мгла 4/3 300 м
[Sc Ac trans]
+32.0 +14.1 34 +34 +34 душно 1004.4 1001.1
21 20.05 СЗ 1 4000 м мгла ясно +30.0 +14.5 39 +32 +32 жарко 1003.2 1000.0
00 21.05 штиль 0 2000 м мгла ясно +29.0 +15.3 43 +32 +32 душно 1002.4 999.2
03 21.05 С 3 4000 м мгла ясно +31.0 +12.6 32 +32 +37 жарко 1005.6 1002.3 +27.1
06 21.05 С 7 2000 м пыльный позёмок ясно +39.5 +10.2 17 +38 +43 очень
жарко
1006.8 1003.6
09 21.05 С 3 4000 м мгла ясно +42.5 +11.7 16 +42 +59 опасность
перегрева
1004.8 1000.0
12 21.05 С 2 4000 м мгла ясно +42.0 +13.5 19 +42 +47 опасность
перегрева
1003.2 1000.1 +43.1
15 21.05 С 2 4000 м мгла ясно +37.0 +17.1 31 +40 +40 очень
душно
1004.0 1000.0
18 21.05 СЗ 2 4000 м мгла ясно +32.0 +17.2 41 +36 +36 очень
душно
1005.3 1002.0
21 21.05 штиль 0 4000 м мгла ясно +29.5 +16.9 47 +33 +33 душно 1004.1 1000.0
00 22.05 штиль 0 4000 м мгла ясно +28.0 +16.9 51 +32 +32 душно 1003.4 1000.1
03 22.05 С 3 4000 м мгла ясно +30.0 +15.6 42 +33 +38 душно 1006.1 1002.8 +26.1
06 22.05 С 6 4000 м мгла ясно +40.0 +15.0 23 +41 +48 опасность
перегрева
1008.2 1005.0
09 22.05 С 3 4000 м мгла ясно +43.0 +14.0 18 +43 +60 опасность
перегрева
1005.7 1000.0
12 22.05 З 2 4000 м мгла ясно +42.0 +13.5 19 +42 +47 опасность
перегрева
1003.7 1000.7 +44.1
15 22.05 З 2 4000 м мгла ясно +37.0 +14.9 27 +38 +38 душно 1004.8 1001.7
18 22.05 штиль 0 4000 м мгла ясно +33.0 +15.5 35 +35 +35 душно 1006.0 1002.8
21 22.05 штиль 0 4000 м мгла ясно +29.0 +15.3 43 +32 +32 душно 1005.4 1000.0
00 23.05 С 1 4000 м мгла ясно +26.0 +15.4 52 +29 +29 душно 1004.8 1001.6
03 23.05 штиль 0 4000 м мгла ясно +28.0 +12.8 39 +29 +37 жарко 1005.1 1001.9 +25.5
06 23.05 СВ 3 4000 м мгла ясно +40.5 +13.4 20 +40 +56 опасность
солнечного
удара
1006.7 1003.5
09 23.05 В 2 4000 м ясно +43.0 +9.8 14 +41 +62 опасность
перегрева
1004.1 1000.0
12 23.05 ЮЗ 1 4000 м 3/0
[Ci fib]
+44.0 +8.8 12 +42 +47 опасность
перегрева
1001.6 998.6 +45.1
15 23.05 Ю 2 4000 м мгла 3/0
[Ac trans]
+39.0 +13.3 22 +39 +39 очень
жарко
1001.9 1002.0
18 23.05 ЮВ 1 4000 м мгла ясно +32.0 +15.3 37 +34 +34 душно 1003.2 1000.0
21 23.05 Ю 1 4000 м мгла ясно +29.0 +15.3 43 +32 +32 душно 1002.0 1000.0
00 24.05 штиль 0 4000 м мгла ясно +27.0 +15.7 50 +30 +30 душно 1002.5 999.2
03 24.05 Ю 1 4000 м мгла ясно +29.0 +15.3 43 +32 +38 душно 1003.0 999.8 +26.1
06 24.05 ЮЗ 2 4000 м ясно +40.0 +12.5 20 +40 +59 опасность
солнечного
удара
1003.8 1000.6
09 24.05 В 2 4000 м ясно +44.0 +11.8 15 +43 +62 опасность
перегрева
1002.2 1002.0
12 24.05 ЮВ 2 4000 м ясно +44.0 +11.8 15 +43 +48 опасность
перегрева
1000.6 997.3 +46.5
15 24.05 ЮВ 3 4000 м ясно +38.0 +12.9 22 +38 +38 очень
жарко
1001.8 1002.0
18 24.05 Ю 2 4000 м мгла ясно +35.0 +15.2 31 +37 +37 очень
душно
1003.2 999.9
21 24.05 ЮВ 2 4000 м мгла ясно +30.0 +16.6 44 +33 +33 душно 1002.5 1000.0
00 25.05 штиль 0 4000 м мгла ясно +27.0 +15.7 50 +30 +30 душно 1001.7 998.4
03 25.05 штиль 0 4000 м мгла ясно +30.0 +15.6 42 +33 +40 душно 1002.6 999.3 +26.1
06 25.05 СЗ 4 4000 м мгла ясно +41.0 +15.5 23 +42 +55 опасность
перегрева
1003.3 1000.2
09 25.05 СЗ 5 4000 м мгла ясно +45.0 +10.9 14 +44 +54 опасность
перегрева
1001.1 1001.0
12 25.05 С 2 4000 м мгла ясно +45.0 +9.4 12 +43 +48 опасность
перегрева
999.5 996.5 +46.1
15 25.05 СВ 2 4000 м мгла ясно +37.5 +17.8 32 +41 +41 опасность
перегрева
1000.5 1001.0
18 25.05 штиль 0 4000 м мгла ясно +32.5 +17.9 42 +37 +37 очень
душно
1001.8 998.6
21 25.05 штиль 0 4000 м мгла ясно +29.5 +17.9 50 +34 +34 очень
душно
1000.7 1000.0
00 26.05 штиль 0 4000 м мгла ясно +27.5 +18.2 57 +32 +32 очень
душно
1000.0 996.8
03 26.05 штиль 0 4000 м ясно +30.0 +17.5 47 +34 +41 очень
душно
1001.8 998.6 +26.0
06 26.05 СВ 3 4000 м ясно +40.0 +16.2 25 +42 +58 опасность
перегрева
1003.7 1000.5
09 26.05 СЗ 1 4000 м ясно +45.0 +12.4 15 +44 +67 опасность
перегрева
1001.8 1000.0
12 26.05 СЗ 1 4000 м ясно +44.5 +12.8 16 +44 +50 опасность
перегрева
999.2 996.2 +46.1
15 26.05 4000 м мгла ясно +39.0 +13.3 22 1000.7 1001.0
18 26.05 Ю 2 4000 м мгла ясно +34.0 +14.8 32 +36 +36 душно 1001.3 998.1
21 26.05 Ю 1 4000 м мгла ясно +29.5 +13.8 38 +31 +31 жарко 1000.7 1000.0

 

Местоположение метеостанции Nawabshah (Пакистан): широта 26.25 долгота 68.37 высота над уровнем моря 38 м.

В архиве по умолчанию представлена погода в Nawabshah за последнюю неделю. Архивные данные за месяц целиком и за предыдущие месяцы, начиная с января 2011 года, Вы можете получить, выбрав интересующий диапазон дат из раскрывающегося списка и нажав кнопку "Ввод!".


*Определитесь, кто Вы:
робот инопланетянин человек

Внимание! Время в таблицах - всемирное. Для получения местного времени необходимо прибавить поправку, которая в Nawabshah равна 5 ч.

Смотрите также архив погоды в соседних городах и на ближайших метеорологических станциях:

Погода в Pad Idan (Пакистан) (71 км)
Погода в Hyderabad (Пакистан) (97 км)
Погода в Sakrand (Пакистан) (125 км)
Погода в Chhor (Пакистан) (163 км)
Погода в Rohri (Пакистан) (166 км)
Погода в Badin (Пакистан) (188 км)
Погода в Karachi (Пакистан) (195 км)
Погода в Jacobabad (Пакистан) (228 км)
Погода в Khuzdar (Пакистан) (246 км)
Погода в Jaisalmer (Rajasthan, Индия) (264 км)

Пояснения к столбцам:

Ветер - указаны скорость ветра в м/с - средняя за 10 мин, порывы в срок и между сроками (в фигурных скобках) и направление, откуда дует ветер: С - северный, СВ - северо-восточный, В - восточный, ЮВ - юго-восточный, Ю - южный, ЮЗ - юго-западный, З - западный, СЗ - северо-западный.
Видимость - горизонтальная дальность видимости в метрах или километрах. При видимости от 1 до 10 км при отсутствии осадков обычно наблюдается дымка, при ухудшении видимости до 1 км и менее - туман. В сухую погоду видимость может ухудшаться дымом, пылью или мглою.
Явления - указаны атмосферные явления, наблюдавшиеся в срок или в последний час перед сроком; фигурными скобками обозначены явления, наблюдавшиеся между сроками (за 1-3 часа до срока); квадратными скобками обозначены град или гололедные отложения с указанием их диаметра в мм.
Облачность - указаны через наклонную черту общая и нижняя облачность в баллах и высота нижней границы облаков в метрах; квадратными скобками обозначены формы облаков: Ci - перистые, Cs - перисто-слоистые, Cc - перисто-кучевые, Ac - высококучевые, As - высокослоистые, Sc - слоисто-кучевые, Ns - слоисто-дождевые, Cu - кучевые, Cb - кучево-дождевые. Подробнее классификацию облаков см. в Атласе облаков (PDF).
T - Температура воздуха - температура, измеренная на высоте 2 м над землей.
Td - Температура точки росы - температура, при понижении до которой содержащийся в воздухе водяной пар достигнет насыщения.
f - Относительная влажность воздуха - влажноcть воздуха, измеренная на высоте 2 м над землей.
Te - Эффективная температура - температура, которую ощущает одетый по сезону человек в тени. Характеристика душности погоды. При расчете учитывается влияние влажности воздуха и скорости ветра на теплоощущения человека.
Tes - Эффективная температура на солнце - температура, которую ощущает человек, с поправкой на солнечный нагрев. Характеристика знойности погоды. Зависит от высоты солнца над горизонтом, облачности и скорости ветра. Ночью, в пасмурную погоду, а также при ветре 12 м/с и более поправка равна нулю.
P - Атмосферное давление - приведенное к уровню моря атмосферное давление.
Po - Атмосферное давление - измеренное на уровне метеостанции атмосферное давление.
Tmin - Минимальная температура - минимум температуры воздуха на высоте 2 м над землей.
Tmax - Максимальная температура - максимум температуры воздуха на высоте 2 м над землей.
R - Количество осадков - Количество выпавших осадков за период времени, мм. При наведении курсора мыши на число - период времени, за который выпало указанное количество осадков.
R24 - Количество осадков - Количество выпавших осадков за 24 часа, мм.
S - Снежный покров - Высота снежного покрова, см. При наведении курсора мыши на число - состояние снежного покрова и степень покрытия местности в баллах.